Albany, NY

9:55 PM EDT on October 14, 2019 (GMT -0400)
Albany International

Weather History for KALB - August, 2019

Change the Weather History Date:

Tuesday, August 20, 2019

  Actual Average Record
Temperature  
Mean Temperature 75 °F 70 °F  
Max Temperature 87 °F 80 °F 97 °F (1937)
Min Temperature 63 °F 60 °F 45 °F (1998)
Degree Days  
Heating Degree Days 0 1  
Month to date heating degree days 0 3  
Since 1 June heating degree days 27 60  
Since 1 July heating degree days 0 8  
Cooling Degree Days 10 5  
Month to date cooling degree days 171 128  
Year to date cooling degree days 677 494  
Since 1 June cooling degree days 655 464  
Growing Degree Days 25 (Base 50)    
Moisture  
Dew Point 61 °F    
Average Humidity 62    
Maximum Humidity 87    
Minimum Humidity 37    
Precipitation  
Precipitation 0.00 in 0.11 in 1.17 in (2006)
Month to date precipitation 3.10 2.36  
Year to date precipitation 27.96 25.05  
Sea Level Pressure  
Sea Level Pressure 30.06 in    
Wind  
Wind Speed 2 mph (SSW)    
Max Wind Speed 10 mph    
Max Gust Speed 13 mph    
Visibility 10 miles    
Events      
T = Trace of Precipitation, MM = Missing Value Source: NWS Daily Summary

Daily Weather History Graph

Daily Weather History Graph

Search for Another Location

Airport or City:

Astronomy

Aug. 20, 2019 Rise Set
Actual Time 6:06 AM EDT 7:49 PM EDT
Civil Twilight 5:36 AM EDT 8:19 PM EDT
Nautical Twilight 5:00 AM EDT 8:56 PM EDT
Astronomical Twilight 4:20 AM EDT 9:35 PM EDT
Moon 10:30 PM EDT (8/20) 10:48 AM EDT (8/20)
Length of Visible Light 14h 43m
Length of Day
13h 42m
Waning Gibbous, 78% of the Moon is Illuminated
Aug 20
Waning Gibbous
Aug 23
Last Quarter
Aug 30
New
Sep 5
First Quarter
Sep 14
Full

Hourly Weather History & Observations

Time (EDT) Temp. Heat Index Dew Point Humidity Pressure Visibility Wind Dir Wind Speed Gust Speed Precip Events Conditions
12:51 AM 72.0 °F - 64.0 °F 76% 30.05 in 10.0 mi WNW 5.8 mph - N/A   Mostly Cloudy
1:51 AM 71.1 °F - 61.0 °F 70% 30.06 in 10.0 mi NNW 5.8 mph - N/A   Partly Cloudy
2:51 AM 68.0 °F - 61.0 °F 78% 30.06 in 10.0 mi NNW 4.6 mph - N/A   Clear
3:51 AM 68.0 °F - 60.1 °F 76% 30.06 in 10.0 mi Calm Calm - N/A   Clear
4:51 AM 66.0 °F - 61.0 °F 84% 30.06 in 10.0 mi Calm Calm - N/A   Clear
5:51 AM 64.0 °F - 60.1 °F 87% 30.08 in 10.0 mi Calm Calm - N/A   Partly Cloudy
6:51 AM 64.9 °F - 61.0 °F 87% 30.10 in 10.0 mi Calm Calm - N/A   Partly Cloudy
7:51 AM 70.0 °F - 62.1 °F 76% 30.11 in 10.0 mi Calm Calm - N/A   Partly Cloudy
8:51 AM 73.9 °F - 61.0 °F 64% 30.12 in 10.0 mi Calm Calm - N/A   Partly Cloudy
9:51 AM 77.0 °F - 59.0 °F 54% 30.12 in 10.0 mi Variable 4.6 mph - N/A   Partly Cloudy
10:51 AM 78.1 °F - 55.9 °F 46% 30.12 in 10.0 mi Calm Calm - N/A   Partly Cloudy
11:51 AM 82.0 °F 81.7 °F 57.0 °F 42% 30.11 in 10.0 mi SSW 4.6 mph - N/A   Partly Cloudy
12:51 PM 81.0 °F 80.8 °F 55.9 °F 42% 30.09 in 10.0 mi Calm Calm - N/A   Partly Cloudy
1:51 PM 84.0 °F 82.9 °F 55.0 °F 37% 30.08 in 10.0 mi Calm Calm - N/A   Partly Cloudy
2:51 PM 84.9 °F 84.2 °F 57.9 °F 40% 30.07 in 10.0 mi Variable 3.5 mph - N/A   Partly Cloudy
3:51 PM 84.9 °F 84.2 °F 57.9 °F 40% 30.06 in 10.0 mi South 4.6 mph - N/A   Partly Cloudy
4:51 PM 84.9 °F 84.2 °F 57.9 °F 40% 30.04 in 10.0 mi Calm Calm - N/A   Partly Cloudy
5:51 PM 84.0 °F 84.4 °F 61.0 °F 46% 30.03 in 10.0 mi South 6.9 mph - N/A   Partly Cloudy
6:51 PM 82.9 °F 83.7 °F 62.1 °F 49% 30.02 in 10.0 mi South 9.2 mph - N/A   Partly Cloudy
7:51 PM 80.1 °F 81.7 °F 64.0 °F 58% 30.01 in 10.0 mi SE 3.5 mph - N/A   Partly Cloudy
8:51 PM 75.9 °F - 64.9 °F 69% 30.02 in 10.0 mi Calm Calm - N/A   Partly Cloudy
9:51 PM 73.9 °F - 64.9 °F 73% 30.02 in 10.0 mi Calm Calm - N/A   Partly Cloudy
10:51 PM 73.0 °F - 64.0 °F 73% 30.02 in 10.0 mi Calm Calm - N/A   Partly Cloudy
11:51 PM 71.1 °F - 64.9 °F 81% 30.02 in 10.0 mi Calm Calm - N/A   Partly Cloudy